Volver al catálogo

STARLINK-30434

ActivoComunicacionesVLEO
NORAD 57875·PAYLOAD·🇺🇸 United States

Lanzado Sep 16, 2023 desde Cape Canaveral Space Force Station

Loading…

Próximos Pases (próximas 24 horas)

TLE

ActualizadoSource: CelesTrak SupGP

Época: Sep 14, 2026, 21:33 UTC

1 57875C 23144M   26257.89840278 -.00007109  00000+0 -25749-3 0  2579
2 57875  43.0022 296.8939 0001695 267.4922  21.0116 15.27578490    14

Sigue STARLINK-30434 en tiempo real con AllMySat

Download on the App Store